Starlink 31965

operational
NORAD ID: 59888 Int'l Des: 2024-100 Owner: SPXS Country: US Constellation: starlink
LEOCIRCULAR

About Starlink 31965

Description loading...

Live Position

Loading 3D Globe...

Upcoming Passes

Altitude History

Altitude vs Time

uPlot chart will show altitude changes over time

Two-Line Element Set

1 59888U 24100D 25352.93022798 .00026161 00000-0 95554-3 0 9999
2 59888 42.9977 221.6649 0001246 266.9053 93.1656 15.27624165 88704
Epoch: Dec 18, 2025 • Age: 19 hours

Current Status

Altitude 482.3 km
Velocity 7.63 km/s
Sub-Earth Point 16.86°N, 111.47°W
Launch Date May 28, 2024
Age 1.5 years
Type internet

Technical Details

Classification Payload
Mass 730.00 kg
Dry Mass 700.00 kg
Total Mass 730.00 kg
Length 0.30 m
Diameter 4.10 m
Span 29.00 m
Shape Box + pan
Manufacturer SPXS
Bus Type Starlink V2M
Phase Status In Orbit
Owner/State SPXS/US

Large Constellations

Loading constellations...